This demonstration page uses our WeatherBlox Daily Observations layout. Learn more.

Left ArrowRight Arrow

Hourly Observations for September 15, 2022

Temp ( °F °C ) Dew Point ( °F °C ) Humidity (%) Winds ( mph kmh ) Pressure ( in mb ) Visibility ( mi km ) Precip ( " mm )
12:53 am 00:53 Clear 74 23.3 57 13.9 56 56 S 9 15 29.93 1013 10 16 0.00 0.00
1:53 am 01:53 Clear 74 23.3 55 12.8 52 52 S 10 17 29.93 1014 10 16 0.00 0.00
2:53 am 02:53 Clear 72 22.2 53 11.7 51 51 S 10 17 29.93 1014 10 16 0.00 0.00
3:53 am 03:53 Clear 70 21.1 51 10.6 51 51 S 10 17 29.93 1014 10 16 0.00 0.00
4:53 am 04:53 Clear 68 20 49 9.4 50 50 SSE 10 17 29.93 1014 10 16 0.00 0.00
5:53 am 05:53 Clear 68 20 49 9.4 50 50 S 8 13 29.94 1014 10 16 0.00 0.00
6:53 am 06:53 Clear 68 20 50 10 53 53 S 8 13 29.95 1014 10 16 0.00 0.00
7:53 am 07:53 Partly Cloudy 67 19.4 50 10 55 55 SSE 7 11 29.96 1015 9 14 0.00 0.00
8:53 am 08:53 Partly Cloudy 66 18.9 51 10.6 59 59 SSE 9 15 29.95 1014 8 13 0.00 0.00
9:53 am 09:53 Mostly Sunny 71 21.7 54 12.2 55 55 S 10 17 29.95 1014 10 16 0.00 0.00
10:53 am 10:53 Sunny 77 25 55 12.8 47 47 S 14 22 29.94 1014 10 16 0.00 0.00
11:53 am 11:53 Sunny 80 26.7 56 13.3 44 44 S 15 24 29.91 1013 10 16 0.00 0.00
12:53 pm 12:53 Sunny 84 28.9 56 13.3 38 38 S 15 24 29.88 1012 10 16 0.00 0.00
1:53 pm 13:53 Sunny 86 30 56 13.3 36 36 SSW 17 28 29.87 1012 10 16 0.00 0.00
2:53 pm 14:53 Sunny 88 31.1 57 13.9 35 35 S 18 30 29.85 1011 10 16 0.00 0.00
3:53 pm 15:53 Sunny 89 31.7 56 13.3 33 33 S 15 24 29.84 1010 10 16 0.00 0.00
4:53 pm 16:53 Sunny 88 31.1 56 13.3 34 34 S 15 24 29.83 1010 10 16 0.00 0.00
5:53 pm 17:53 Mostly Cloudy 88 31.1 57 13.9 35 35 S 16 26 29.81 1010 10 16 0.00 0.00
6:53 pm 18:53 Mostly Sunny 85 29.4 56 13.3 37 37 S 16 26 29.82 1010 10 16 0.00 0.00
7:53 pm 19:53 Mostly Cloudy with Nearby Thunderstorms 81 27.2 58 14.4 45 45 S 14 22 29.83 1010 10 16 0.01 0.13
8:18 pm 20:18 Partly Cloudy 80 26.7 58 14.4 47 47 SSE 14 22 29.77 1008 10 16 0.01 0.13
8:53 pm 20:53 Partly Cloudy 79 26.1 58 14.4 49 49 S 9 15 29.87 1011 10 16 0.01 0.13
9:53 pm 21:53 Partly Cloudy 73 22.8 59 15 61 61 NW 9 15 29.91 1013 10 16 0.00 0.00
10:53 pm 22:53 Cloudy 73 22.8 59 15 61 61 W 5 7 29.92 1013 10 16 0.00 0.00
11:35 pm 23:35 Cloudy with Thunderstorms 69 20.6 63 17.2 81 81 WSW 7 11 29.91 1013 10 16 0.01 0.25
11:53 pm 23:53 Cloudy with Thunderstorms 67 19.4 63 17.2 87 87 W 14 22 29.95 1014 10 16 0.02 0.51

Powered by AerisWeather